sat.trackr.live / text

‹ back to catalog

STARLINK-37565

NORAD 69458 · 2026-127R

PAYLOAD ACTIVE UNKNOWN

§ Identity

Operator
Country
US
Launch date
2026-06-08
Launch site
AFETR
Launch vehicle
Mass (kg)
RCS (m²)

Purposes: comms

External: N2YO · Heavens-Above · Gunter

§ Orbital elements

Epoch: 2026-09-20T04:53:26.300832Z

Period
93.85 min
Inclination
53.1585°
Eccentricity
0.0001331
Mean motion
15.34413440 rev/d
Perigee alt
461.8 km
Apogee alt
463.6 km
Semi-major
6,840.8 km
B*
5.9601e-4
RAAN
167.3072°
Arg perigee
95.1419°
Mean anomaly
264.9735°
Rev number
1,614

§ Raw data

STARLINK-375651 69458U 26127R   26263.20377663  .00019823  00000+0  59601-3 0  99992 69458  53.1585 167.3072 0001331  95.1419 264.9735 15.34413440 16141

JSON: /api/v1/satellites/69458 · /tle

For live sub-satellite position, see the globe view (requires WebGL).

§ Visibility from observer

Set your observer location to see the next 7 days of passes ≥ 10°. The values pass through the URL so the page stays shareable.

No JS? Fill the form by hand. The geolocation button needs JavaScript.